Location: Bois Neuf
(42.7667°N, 0.6333°E)
Time: 22:29:20
(UTC+00:00)

CZ-2D R/B - Pass Details

Date: 07 June 2020
Orbit: 791 x 846 km, 98.7° (Epoch: 07 July)

Event Time Altitude Azimuth Distance (km) Brightness Sun altitude
Rises 00:26:44 0° 29° (NNE) 3,302 6.4 -24.1°
Reaches altitude 10° 00:29:44 10° 47° (NE) 2,364 5.2 -24.0°
Maximum altitude 00:33:26 19° 92° (E) 1,790 3.9 -23.9°
Enters shadow 00:35:01 17° 115° (ESE) 1,906 3.9 -23.9°
